Погода в Магнитогорске

Хотите узнать прогноз погоды в Магнитогорске? Тогда Вам сюда: Погода в Магнитогорске

Поиск расширенной информации на нашем сайте:

Полезная информация:

Новости сайта



02.01.2020
Опубликован Долгосрочный прогноз погоды по городам России и ближнего зарубежья на январь 2020 года.
Карты: Прогноз на январь и февраль 2020 года, Сравнение прогнозируемой аномалии приземной температуры воздуха на январь 2020 года по разным моделям.




Погода в Магнитогорске - сегодня

Время (UTC), дата Ветер
(°,м/с) 
Видим.   Явления Облачность Т
(°С)
Тd
(°С)
f(%) Тe
(°С)
Pmin
(гПа)
dP
(гПа)
Po
(мм)
O2
(г/м3)
Тmin Tmax R s Состояние
почвы
15 02.07.20 330 (СЗ) 20000 м    8/0 средняя 
[Ac trans]
+21.8 +0.4 24 +22  1014.6  728  272    +22.8       
18 02.07.20 330 (СЗ) 10 км    8/8 600 м 
[Sc]
+16 +2.9 41 +17  1016.3  0.8  729  277           
21 02.07.20 тихо ()   10 км    8/8 600 м 
[Sc]
+13.5 +5.5 58 +14  1016.2  -0.4  728  279           
00 03.07.20 040 (СВ) 20000 м    9/9 600 м 
[Sc]
+11 +6.4 73 +12  1016.5  0.1  728  281           
03 03.07.20 180 (Ю) 20000 м    8/8 600 м 
[Sc]
+18.1 +5.5 43 +20  1015.3  0.1  728  274  +10.8        сухая 
06 03.07.20 200 (Ю) 20000 м    8/8 600 м 
[Sc]
+22.9 +6.1 34 +23  1013.8  -0.7  728  270           
09 03.07.20 290 (З) 20000 м    6/6 1000 м 
[Cu hum]
+26.4 +7.1 29 +26  1012.7  -0.6  727  266           
12 03.07.20 010 (С) 20000 м    4/4 1000 м 
[Cu hum]
+27.3 +5.8 25 +27  1012.1  -0.4  727  265           
15 03.07.20 010 (С) 20000 м    4/4 600 м кучево-дожд. 
[Cb cap]
+26.1 +6.2 28 +26  1012.7  0.4  727  266    +29       
18 03.07.20 330 (СЗ) 10 км    3/3 600 м 
[Sc]
+22.2 +6.7 37 +22  1015  1.6  728  270           
21 03.07.20 340 (С) 10 км    ясно 
+16.9 +8.8 59 +18  1015  0.6  729  275           
00 04.07.20 320 (СЗ) 20000 м    ясно 
+15.5 +9.1 66 +17  1016.9  0.2  729  276           
03 04.07.20 330 (СЗ) 20000 м    ясно 
+21.6 +10.9 51 +25  1016.9  0.2  730  270  +14.7        сухая 
06 04.07.20 340 (С) 20000 м    3/3 600 м 
[Cu med, cong]
+25.1 +7.8 33 +25  1016  -0.4  729  268           
09 04.07.20 010 (С) 20000 м    6/6 600 м 
[Cu med, cong]
+27.2 +6.4 27 +27  1015.1  -0.6  729  266           
12 04.07.20 010 (С) 20000 м    6/6 600 м 
[Cu med, cong]
+28.4 +6.7 25 +28  1013.7  -1.2  728  265           
15 04.07.20 340 (С) 20000 м    6/6 600 м 
[Sc]
+25.8 +7.3 31 +26  1014  728  267    +28.4       
18 04.07.20 320 (СЗ) 10 км    4/4 600 м 
[Sc]
+23.1 +8.3 39 +23  1014.8  0.4  728  269           
21 04.07.20 320 (СЗ) 6-13{13}  10 км    ясно 
+20.2 +10.6 54 +23  1015.6  0.3  729  271           
00 05.07.20 140 (ЮВ) 1{13}  20000 м  {ливн. осадки}  10/10 600 м кучево-дожд. 
[Cb cap]
+16.9 +14 83 +26  1014.6  -1.4  728  273           
03 05.07.20 130 (ЮВ) 20000 м    9/9 600 м кучево-дожд. 
[Cb cap]
+19.6 +14.3 71 +29  1014.2  0.1  728  271  +16.9    0.4    влажная 
06 05.07.20 280 (З) 20000 м    3/0 верхняя 
[Ci fib]
+26.8 +13.6 44 +34  1012  -1.1  727  264           
09 05.07.20 340 (С) 20000 м    4/4 600 м 
[Cu med, cong]
+30.3 +11.7 32 +35  1009.8  -1.6  726  261           
12 05.07.20 260 (З) 4{10}  20000 м    6/6 600 м 
[Cu med, cong]
+31.5 +9.5 26 +33  1007.6  -1.9  724  260           
15 05.07.20 360 (С) 8-13{13}  10 км  гроза, ливневой дождь  10/10 600 м кучево-дожд. 
[Cb cap]
+19.4 +15.2 77 +29  1010.5  1.1  725  269    +31.5     
Время (UTC), дата Ветер
(°,м/с) 
Видим.   Явления Облачность Т
(°С)
Тd
(°С)
f(%) Тe
(°С)
Pmin
(гПа)
dP
(гПа)
Po
(мм)
O2
(г/м3)
Тmin Tmax R s Состояние
почвы

Для получения пояснительной информации подведите курсор к названию столбца.

ПОГОДА в Магнитогорске - архив

Всё, что Вы хотите узнать о погоде в Магнитогорске - удобно и подробно!

Выберите нужную дату (начиная с 1 января 2019* года) и нажмите кнопку "Найти".
Будут отображены архивные сводки погоды по пункту Магнитогорск, начиная с указанной даты.


Отображать данные в формате CSV (для использования в таблицах Excel)


Внимание! Наш архив погоды предназначен исключительно для личного некоммерческого использования в познавательных целях. Если Вам необходимы официальные справки о состоянии погоды (для производственных, юридических, коммерческих и т.п. целей), обращайтесь в органы Росгидромета.

*Примечание: данная дата относится к архиву по метеостанциям СССР (Россия, СНГ, Балтия).
Архив по метеостанциям Зарубежной Европы и Азии (кроме Китая) хранится 10 дней, по другим регионам земного шара (Китай, Африка, Америка, Австралия, Океания) - 1 день.

Магнитогорск - район местоположения метеостанции


Название, широта, долгота, высота метеостанции:
Магнитогорск 53.3°ш. 59.1°д. 384 м над ур. моря [Российская Федерация]

Дополнительная информация

В oтличие oт бoльшинства пoгoдных сайтoв мы публикуем пoдрoбную метеoинфoрмацию в детальнoм прoфессиoнальнoм фoрмате.

Характеристики температуры и влажнoсти вoздуха измеряются на высoте 2 м в тени вдали oт зданий и деревьев.
Скoрoсть ветра измеряется на высoте 10 м (на урoвне рoста челoвека скoрoсть ветра ниже в 1.5-2 раза). Если метеoстанция нахoдится в гoрoде или в лесу, тo скoрoсть ветра занижена на 2-4 м/с пo сравнению с oткрытым местoм. Скoрoсть ветра над акватoриями крупных рек и oзёр, а также на вершинах хoлмoв на 2-5 м/с выше, чем в oбычных услoвиях.
Атмoсфернoе давление в разных тoчках местнoсти мoжет значительнo oтличаться oт давления на метеoстанции, в зависимoсти oт услoвий рельефа (при пoдъёме на 10 м давление пoнижается примернo на 1 мм рт.ст.).